Tiempo atmosférico en la estación meteorológica de Arico, Santa Cruz de Tenerife (418 m.)



Fecha
DESCASC
Temp. máxima en grados centígrados (hora)
DESCASC
Temp. mínima en grados centígrados (hora)
DESCASC
Temp. media en grados centígrados
DESCASC
Racha de viento máxima en m/sg (hora)
DESCASC
Velocidad máxima media en intervalos de 10 minutos(hora)
DESCASC
Precipitaciones diarias en mm
DESCASC
Precipitaciones de 00:00 a 06:00 en mm
DESCASC
Precipitaciones de 06:00 a 12:00 en mm
DESCASC
Precipitaciones de 12:00 a 18:00 en mm
DESCASC
Precipitaciones de 18:00 a 24:00 en mm
DESCASC
18-01-2018 21.3 (13:00) 12.5 (08:00) 16.9 11.94 (15:30) 8.33 (15:30) 0 0 0 0 0
17-01-2018 20.8 (15:10) 12.1 (04:50) 16.4 14.17 (13:00) 9.17 (12:10) 0 0 0 0 0
16-01-2018 18 (13:10) 11.6 (02:40) 14.8 19.72 (08:30) 11.39 (08:30) 0 0 0 0 0
15-01-2018 19.7 (12:00) 11.4 (04:40) 15.6 14.72 (16:20) 8.61 (16:30) 0 0 0 0 0
14-01-2018 17.6 (12:20) 11.3 (00:00) 14.5 13.61 (11:30) 8.61 (13:50) 0 0 0 0 0
13-01-2018 17.6 (12:30) 12.6 (00:00) 15.1 12.78 (12:40) 9.17 (12:00) 0 0 0 0 0
12-01-2018 18.6 (13:20) 11.5 (00:00) 15.1 8.61 (14:40) 5.56 (10:50) 0 0 0 0 0
11-01-2018 16.8 (13:30) 12.3 (00:00) 14.5 11.39 (14:50) 6.67 (16:10) 0 0 0 0 0
10-01-2018 19.7 (12:50) 13.8 (00:00) 16.8 9.44 (15:30) 6.39 (15:30) 0 0 0 0 0
09-01-2018 19.7 (11:20) 12.1 (00:00) 15.9 5.83 (13:20) 4.17 (13:20) 0 0 0 0 0
08-01-2018 18.5 (11:40) 12.7 (00:00) 15.6 7.78 (12:40) 5.56 (09:50) 0 0 0 0 0
07-01-2018 19.5 (11:40) 11.6 (00:00) 15.6 11.39 (00:40) 5 (00:40) 0 0 0 0 0
06-01-2018 18.1 (14:00) 13 (00:00) 15.6 10 (21:30) 6.67 (21:20) 0 0 0 0 0
05-01-2018 20.9 (14:00) 11.4 (00:00) 16.1 8.33 (22:50) 5.83 (22:40) 0 0 0 0 0
04-01-2018 20.3 (11:30) 12.3 (23:20) 16.3 10.28 (13:20) 6.94 (13:00) 0 0 0 0 0
03-01-2018 22.8 (13:50) 13.1 (00:00) 17.9 8.89 (00:20) 5.83 (15:10) 0 0 0 0 0
02-01-2018 24.6 (13:00) 12.7 (00:00) 18.7 12.5 (14:50) 8.33 (14:50) 0 0 0 0 0
01-01-2018 20.3 (12:50) 13.8 (00:00) 17 13.06 (16:20) 8.61 (16:20) 0 0 0 0 0
31-12-2017 21.3 (13:00) 14.1 (00:00) 17.7 10.28 (22:50) 6.67 (22:50) 0 0 0 0 0
30-12-2017 21.3 (15:00) 14.6 (00:00) 17.9 10 (01:20) 6.11 (01:20) 0 0 0 0 0
29-12-2017 18.6 (13:10) 14 (00:00) 16.3 14.44 (06:50) 8.61 (10:50) 0 0 0 0 0
28-12-2017 19.1 (13:50) 13.1 (00:00) 16.1 15 (15:20) 9.17 (15:10) 0 0 0 0 0
27-12-2017 17.7 (14:20) 11.1 (00:00) 14.4 12.78 (13:50) 8.06 (13:50) 0 0 0 0 0
26-12-2017 18.1 (12:50) 11.7 (00:00) 14.9 13.06 (11:50) 7.22 (11:50) 0 0 0 0 0
25-12-2017 20.5 (12:50) 10.5 (00:00) 15.5 9.17 (21:10) 5.83 (21:20) 0 0 0 0 0
24-12-2017 17.8 (12:50) 10.9 (00:00) 14.3 11.39 (13:50) 6.11 (13:30) 0 0 0 0 0

Gráficas

Temp. máximas Temp. mínimas Temp. medias Precipitaciones Rachas de viento máximas Velocidades máximas media en intervalos de 10 minutos

Datos horarios

Fecha y hora oficial Temperatura (ºC) Velocidad del viento (km/h) Dirección del viento Racha (km/h) Dirección de racha Precipitación (mm) Presión (hPa) Tendencia (hPa) Humedad (%)
2018-01-22 23:00:00 13.9 15 Nordeste 27 Nordeste 0 -- -- 85
2018-01-22 22:00:00 14.2 16 Nordeste 28 Nordeste 0 -- -- 86
2018-01-22 21:00:00 14.4 18 Nordeste 33 Este 0 -- -- 88
2018-01-22 20:00:00 14.7 16 Nordeste 29 Nordeste 0 -- -- 88
2018-01-22 19:00:00 15.1 15 Nordeste 26 Nordeste 0 -- -- 88
2018-01-22 18:00:00 15.5 18 Nordeste 28 Nordeste 0 -- -- 87
2018-01-22 17:00:00 16.3 17 Nordeste 30 Nordeste 0 -- -- 85
2018-01-22 16:00:00 17.6 21 Nordeste 31 Este 0 -- -- 80
2018-01-22 15:00:00 19.2 18 Nordeste 26 Este 0 -- -- 72
2018-01-22 14:00:00 19.8 16 Este 25 Nordeste 0 -- -- 71
2018-01-22 13:00:00 20 16 Este 30 Nordeste 0 -- -- 67
2018-01-22 12:00:00 20.1 14 Nordeste 22 Nordeste 0 -- -- 66
2018-01-22 11:00:00 20.2 13 Este 22 Este 0 -- -- 55
2018-01-22 10:00:00 19.2 12 Este 17 Nordeste 0 -- -- 36
2018-01-22 09:00:00 17.4 9 Nordeste 21 Norte 0 -- -- 22
2018-01-22 08:00:00 14.8 10 Norte 23 Norte 0 -- -- 22
2018-01-22 07:00:00 14.1 11 Norte 17 Noroeste 0 -- -- 24
2018-01-22 06:00:00 12.6 8 Noroeste 12 Norte 0 -- -- 25
2018-01-22 05:00:00 11.1 3 Oeste 5 Sudoeste 0 -- -- 69
2018-01-22 04:00:00 11.6 3 Oeste 10 Noroeste 0 -- -- 84
2018-01-22 03:00:00 11.5 5 Norte 16 Nordeste 0 -- -- 85
2018-01-22 02:00:00 11.7 9 Norte 19 Nordeste 0 -- -- 87
2018-01-22 01:00:00 11.7 7 Norte 15 Nordeste 0 -- -- 91
2018-01-22 00:00:00 12.2 8 Norte 15 Nordeste 0 -- -- 90
2018-01-21 23:00:00 12.9 6 Norte 17 Nordeste 0 -- -- 87
2018-01-21 22:00:00 12.9 7 Norte 11 Norte 0 -- -- 91
2018-01-21 21:00:00 13.3 5 Nordeste 12 Nordeste 0 -- -- 90
2018-01-21 20:00:00 14.4 5 Nordeste 10 Este 0 -- -- 89
2018-01-21 19:00:00 16.6 2 Nordeste 28 Nordeste 0 -- -- 74
2018-01-21 18:00:00 19.1 13 Nordeste 26 Este 0 -- -- 55
2018-01-21 17:00:00 19.5 15 Nordeste 32 Nordeste 0 -- -- 51
2018-01-21 16:00:00 20.3 22 Nordeste 35 Este 0 -- -- 43
2018-01-21 15:00:00 20.8 16 Este 34 Este 0 -- -- 42
2018-01-21 14:00:00 21.2 21 Este 30 Este 0 -- -- 40
2018-01-21 13:00:00 21.6 19 Este 28 Nordeste 0 -- -- 42
2018-01-21 12:00:00 20.7 18 Nordeste 28 Este 0 -- -- 44
2018-01-21 11:00:00 20.7 10 Este 18 Este 0 -- -- 49
2018-01-21 10:00:00 19.5 10 Este 15 Nordeste 0 -- -- 46
2018-01-21 09:00:00 17 7 Norte 16 Norte 0 -- -- 44
2018-01-21 08:00:00 15.2 8 Norte 17 Nordeste 0 -- -- 44
2018-01-21 07:00:00 14.7 11 Norte 20 Noroeste 0 -- -- 46
2018-01-21 06:00:00 12.5 8 Noroeste 12 Noroeste 0 -- -- 65
2018-01-21 05:00:00 11.8 6 Sudoeste 8 Sudoeste 0 -- -- 83
2018-01-21 04:00:00 12.2 3 Sudoeste 8 Este 0 -- -- 79
2018-01-21 03:00:00 13.9 3 Oeste 14 Noroeste 0 -- -- 51
2018-01-21 02:00:00 12.5 5 Noroeste 11 Noroeste 0 -- -- 69
2018-01-21 01:00:00 12 4 Sudoeste 12 Este 0 -- -- 85
2018-01-21 00:00:00 12 3 Oeste 13 Nordeste 0 -- -- 85
2018-01-20 23:00:00 12.2 3 Noroeste 8 Noroeste 0 -- -- 86
2018-01-20 22:00:00 12.6 5 Norte 15 Nordeste 0 -- -- 80
2018-01-20 21:00:00 12.8 6 Noroeste 30 Nordeste 0 -- -- 84
2018-01-20 20:00:00 13.8 19 Nordeste 32 Este 0 -- -- 85
2018-01-20 19:00:00 14 17 Nordeste 36 Nordeste 0 -- -- 83
2018-01-20 18:00:00 15.4 18 Nordeste 43 Nordeste 0 -- -- 80
2018-01-20 17:00:00 16.3 26 Nordeste 43 Nordeste 0 -- -- 73
2018-01-20 16:00:00 17.2 27 Nordeste 43 Nordeste 0 -- -- 75
2018-01-20 15:00:00 18 30 Nordeste 46 Este 0 -- -- 64
2018-01-20 14:00:00 18.5 29 Este 54 Nordeste 0 -- -- 63
2018-01-20 13:00:00 18.4 27 Nordeste 51 Nordeste 0 -- -- 64
2018-01-20 12:00:00 17.4 31 Nordeste 51 Nordeste 0 -- -- 71
2018-01-20 11:00:00 16.8 29 Nordeste 46 Nordeste 0 -- -- 69
2018-01-20 10:00:00 15.4 28 Nordeste 51 Nordeste 0 -- -- 75
2018-01-20 09:00:00 13.8 17 Nordeste 39 Nordeste 0 -- -- 89
2018-01-20 08:00:00 13.3 26 Nordeste 41 Nordeste 0 -- -- 94
2018-01-20 07:00:00 13.3 20 Nordeste 38 Nordeste 0 -- -- 87
2018-01-20 06:00:00 13.5 21 Nordeste 44 Nordeste 0 -- -- 83
2018-01-20 05:00:00 13.5 30 Nordeste 40 Nordeste 0 -- -- 87
2018-01-20 04:00:00 13.8 24 Nordeste 41 Nordeste 0 -- -- 78
2018-01-20 03:00:00 13.7 26 Nordeste 40 Nordeste 0 -- -- 80
2018-01-20 02:00:00 13.5 19 Nordeste 38 Nordeste 0 -- -- 80
2018-01-20 01:00:00 13.7 23 Nordeste 41 Nordeste 0 -- -- 77
2018-01-20 00:00:00 13.9 22 Nordeste 52 Nordeste 0 -- -- 75
2018-01-19 23:00:00 13.9 27 Nordeste 45 Nordeste 0 -- -- 77
2018-01-19 22:00:00 14 20 Nordeste 36 Nordeste 0 -- -- 78
2018-01-19 21:00:00 14.2 23 Nordeste 35 Nordeste 0 -- -- 80
2018-01-19 20:00:00 13.8 10 Nordeste 35 Nordeste 0 -- -- 74
2018-01-19 19:00:00 14.6 19 Nordeste 41 Nordeste 0 -- -- 76
2018-01-19 18:00:00 15.7 28 Nordeste 44 Nordeste 0 -- -- 67
2018-01-19 17:00:00 16.9 24 Nordeste 47 Nordeste 0 -- -- 65
2018-01-19 16:00:00 17.7 27 Nordeste 48 Nordeste 0 -- -- 65
2018-01-19 15:00:00 18.1 28 Nordeste 46 Nordeste 0 -- -- 63
2018-01-19 14:00:00 18.5 28 Nordeste 46 Nordeste 0 -- -- 57
2018-01-19 13:00:00 18.6 24 Nordeste 47 Nordeste 0 -- -- 58
2018-01-19 12:00:00 18.1 25 Nordeste 45 Este 0 -- -- 63
2018-01-19 11:00:00 17.5 26 Nordeste 43 Nordeste 0 -- -- 61
2018-01-19 10:00:00 16.4 23 Nordeste 42 Este 0 -- -- 68
2018-01-19 09:00:00 13.9 11 Nordeste 18 Norte 0 -- -- 73
2018-01-19 08:00:00 12.2 11 Noroeste 15 Noroeste 0 -- -- 79
2018-01-19 07:00:00 12.2 10 Noroeste 14 Noroeste 0 -- -- 80
2018-01-19 06:00:00 12.5 8 Oeste 18 Oeste 0 -- -- 81
2018-01-19 05:00:00 12.6 11 Oeste 19 Oeste 0 -- -- 81
2018-01-19 04:00:00 12.6 13 Oeste 19 Oeste 0 -- -- 81
2018-01-19 03:00:00 12.8 8 Noroeste 14 Noroeste 0 -- -- 79
2018-01-19 02:00:00 12.6 7 Noroeste 12 Noroeste 0 -- -- 80
2018-01-19 01:00:00 13.3 6 Oeste 14 Oeste 0 -- -- 81
2018-01-19 00:00:00 13.4 9 Oeste 17 Oeste 0 -- -- 77
2018-01-18 23:00:00 13.4 10 Oeste 15 Oeste 0 -- -- 79
2018-01-18 22:00:00 14 6 Oeste 10 Oeste 0 -- -- 81
2018-01-18 21:00:00 14.8 5 Sudoeste 17 Sudoeste 0 -- -- 79
2018-01-18 20:00:00 14.9 13 Sudoeste 20 Sudoeste 0 -- -- 78
2018-01-18 19:00:00 15.6 8 Sur 22 Sudoeste 0 -- -- 76
2018-01-18 18:00:00 16.9 12 Sudoeste 29 Sudoeste 0 -- -- 71
2018-01-18 17:00:00 18 21 Sudoeste 41 Sudoeste 0 -- -- 68
2018-01-18 16:00:00 19.1 26 Sudoeste 43 Sudoeste 0 -- -- 59
2018-01-18 15:00:00 19.5 28 Sudoeste 41 Sudoeste 0 -- -- 59
2018-01-18 14:00:00 20.6 15 Sur 30 Sur 0 -- -- 53
2018-01-18 13:00:00 21.3 11 Sudeste 26 Este 0 -- -- 51
2018-01-18 12:00:00 20.2 9 Sudeste 22 Sudeste 0 -- -- 54
2018-01-18 11:00:00 18.9 8 Sur 21 Sudeste 0 -- -- 56
2018-01-18 10:00:00 17.1 7 Este 14 Este 0 -- -- 66
2018-01-18 09:00:00 13.6 4 Noroeste 14 Oeste 0 -- -- 77
2018-01-18 08:00:00 12.5 9 Oeste 13 Oeste 0 -- -- 73
2018-01-18 07:00:00 13.5 12 Oeste 18 Noroeste 0 -- -- 69
2018-01-18 06:00:00 13.2 12 Noroeste 21 Noroeste 0 -- -- 69
2018-01-18 05:00:00 12.7 10 Noroeste 15 Noroeste 0 -- -- 74
2018-01-18 04:00:00 13.3 10 Oeste 20 Oeste 0 -- -- 71
2018-01-18 03:00:00 13.3 8 Sudoeste 17 Oeste 0 -- -- 72
2018-01-18 02:00:00 13.3 11 Oeste 23 Oeste 0 -- -- 74
2018-01-18 01:00:00 13.4 10 Oeste 15 Oeste 0 -- -- 78
2018-01-18 00:00:00 13.8 6 Sudoeste 24 Oeste 0 -- -- 71
2018-01-17 23:00:00 13.2 10 Oeste 14 Oeste 0 -- -- 74
2018-01-17 22:00:00 13.8 5 Norte 18 Oeste 0 -- -- 69
2018-01-17 21:00:00 14.1 16 Oeste 28 Oeste 0 -- -- 78
2018-01-17 20:00:00 14.4 11 Oeste 18 Oeste 0 -- -- 74
2018-01-17 19:00:00 14.7 4 Sudoeste 21 Nordeste 0 -- -- 72
2018-01-17 18:00:00 16 13 Este 37 Este 0 -- -- 69
2018-01-17 17:00:00 17.6 23 Nordeste 35 Nordeste 0 -- -- 63
2018-01-17 16:00:00 20.1 18 Nordeste 31 Nordeste 0 -- -- 53
2018-01-17 15:00:00 20.5 15 Este 43 Este 0 -- -- 48
2018-01-17 14:00:00 18.7 29 Nordeste 47 Nordeste 0 -- -- 55
2018-01-17 13:00:00 18.7 30 Nordeste 51 Nordeste 0 -- -- 60
2018-01-17 12:00:00 18.3 30 Nordeste 50 Nordeste 0 -- -- 60
2018-01-17 11:00:00 18.5 24 Nordeste 38 Este 0 -- -- 59
2018-01-17 10:00:00 17.7 19 Nordeste 32 Nordeste 0 -- -- 55
2018-01-17 09:00:00 14.6 4 Nordeste 15 Noroeste 0 -- -- 62
2018-01-17 08:00:00 12.5 9 Noroeste 18 Norte 0 -- -- 64
2018-01-17 07:00:00 12.2 5 Norte 15 Norte 0 -- -- 66
2018-01-17 06:00:00 12.3 6 Norte 15 Norte 0 -- -- 60
2018-01-17 05:00:00 12.1 8 Norte 16 Nordeste 0 -- -- 67
2018-01-17 04:00:00 12.4 10 Nordeste 22 Nordeste 0 -- -- 78
2018-01-17 03:00:00 12.6 6 Norte 31 Nordeste 0 -- -- 68
2018-01-17 02:00:00 13.6 18 Nordeste 37 Nordeste 0 -- -- 69
2018-01-17 01:00:00 12.8 12 Nordeste 26 Nordeste 0 -- -- 71
2018-01-17 00:00:00 12.3 7 Norte 20 Nordeste 0 -- -- 68
2018-01-16 23:00:00 12.2 7 Noroeste 21 Norte 0 -- -- 69
2018-01-16 22:00:00 12.8 8 Nordeste 19 Nordeste 0 -- -- 71
2018-01-16 21:00:00 12.8 3 Sudoeste 21 Nordeste 0 -- -- 70
2018-01-16 20:00:00 13.7 10 Nordeste 35 Nordeste 0 -- -- 74
2018-01-16 19:00:00 14.2 15 Este 45 Este 0 -- -- 69
2018-01-16 18:00:00 15.7 27 Nordeste 44 Este 0 -- -- 62
2018-01-16 17:00:00 16.4 29 Nordeste 53 Nordeste 0 -- -- 58
2018-01-16 16:00:00 16.9 34 Nordeste 54 Nordeste 0 -- -- 59
2018-01-16 15:00:00 17.1 37 Nordeste 60 Nordeste 0 -- -- 59
2018-01-16 14:00:00 17.2 37 Nordeste 62 Nordeste 0 -- -- 55
2018-01-16 13:00:00 17.8 30 Nordeste 58 Nordeste 0 -- -- 48
2018-01-16 12:00:00 17.2 36 Nordeste 64 Nordeste 0 -- -- 54
2018-01-16 11:00:00 17.4 30 Nordeste 62 Nordeste 0 -- -- 47
2018-01-16 10:00:00 16.4 29 Nordeste 52 Nordeste 0 -- -- 48
2018-01-16 09:00:00 14.7 32 Nordeste 71 Nordeste 0 -- -- 55
2018-01-16 08:00:00 13.4 32 Nordeste 58 Este 0 -- -- 57
2018-01-16 07:00:00 13.9 28 Nordeste 66 Nordeste 0 -- -- 54
2018-01-16 06:00:00 13.5 26 Nordeste 54 Nordeste 0 -- -- 59
2018-01-16 05:00:00 13.5 27 Nordeste 46 Este 0 -- -- 53
2018-01-16 04:00:00 12.5 8 Noroeste 28 Norte 0 -- -- 57
2018-01-16 03:00:00 12.1 10 Oeste 21 Noroeste 0 -- -- 61
2018-01-16 02:00:00 11.8 11 Norte 48 Nordeste 0 -- -- 59
2018-01-16 01:00:00 13.3 27 Nordeste 47 Nordeste 0 -- -- 56
2018-01-16 00:00:00 13.3 28 Nordeste 48 Nordeste 0 -- -- 55
2018-01-15 23:00:00 12.9 19 Nordeste 42 Este 0 -- -- 63
2018-01-15 22:00:00 12 4 Oeste 32 Nordeste 0 -- -- 62
2018-01-15 21:00:00 12.1 15 Nordeste 43 Nordeste 0 -- -- 65
2018-01-15 20:00:00 12.7 26 Nordeste 45 Nordeste 0 -- -- 63
2018-01-15 19:00:00 13.1 15 Nordeste 47 Nordeste 0 -- -- 63
2018-01-15 18:00:00 14.5 28 Nordeste 43 Nordeste 0 -- -- 68
2018-01-15 17:00:00 14.7 28 Nordeste 53 Nordeste 0 -- -- 76
2018-01-15 16:00:00 14.8 30 Nordeste 50 Nordeste 0 -- -- 81
2018-01-15 15:00:00 16.1 26 Nordeste 40 Nordeste 0 -- -- 74
2018-01-15 14:00:00 18.4 11 Sudeste 38 Sudoeste 0 -- -- 63
2018-01-15 13:00:00 19.6 19 Sur 36 Sudoeste 0 -- -- 54
2018-01-15 12:00:00 19.7 6 Sudeste 21 Sudeste 0 -- -- 51
2018-01-15 11:00:00 18.4 8 Sudeste 15 Sur 0 -- -- 57
2018-01-15 10:00:00 15.6 10 Sur 15 Sudoeste 0 -- -- 68
2018-01-15 09:00:00 13.5 6 Oeste 14 Noroeste 0 -- -- 73
2018-01-15 08:00:00 11.6 9 Noroeste 13 Noroeste 0 -- -- 71
2018-01-15 07:00:00 11.8 6 Noroeste 18 Oeste 0 -- -- 71
2018-01-15 06:00:00 11.7 16 Oeste 24 Oeste 0 -- -- 72
2018-01-15 05:00:00 11.4 12 Oeste 14 Oeste 0 -- -- 73
2018-01-15 04:00:00 11.8 11 Noroeste 17 Noroeste 0 -- -- 71
2018-01-15 03:00:00 12 9 Noroeste 16 Oeste 0 -- -- 72
2018-01-15 02:00:00 11.6 7 Noroeste 19 Oeste 0 -- -- 72
2018-01-15 01:00:00 11.9 14 Oeste 18 Oeste 0 -- -- 72
2018-01-15 00:00:00 11.7 7 Noroeste 13 Oeste 0 -- -- 72
2018-01-14 23:00:00 11.4 4 Sudoeste 9 Noroeste 0 -- -- 70
2018-01-14 22:00:00 11.4 7 Noroeste 12 Noroeste 0 -- -- 75
2018-01-14 21:00:00 12 9 Noroeste 26 Nordeste 0 -- -- 75
2018-01-14 20:00:00 13.1 11 Nordeste 30 Nordeste 0 -- -- 73
2018-01-14 19:00:00 14.1 18 Nordeste 36 Nordeste 0 -- -- 72
2018-01-14 18:00:00 14.6 19 Nordeste 33 Nordeste 0 -- -- 76
2018-01-14 17:00:00 15.4 21 Nordeste 42 Nordeste 0 -- -- 74
2018-01-14 16:00:00 15.9 23 Nordeste 43 Nordeste 0 -- -- 68
2018-01-14 15:00:00 15.6 25 Nordeste 46 Nordeste 0 -- -- 72
2018-01-14 14:00:00 15.8 30 Nordeste 47 Nordeste 0 -- -- 72
2018-01-14 13:00:00 17.1 26 Nordeste 48 Nordeste 0 -- -- 68
2018-01-14 12:00:00 16.9 27 Nordeste 49 Este 0 -- -- 64
2018-01-14 11:00:00 16.5 29 Nordeste 45 Nordeste 0 -- -- 69
2018-01-14 10:00:00 14.9 25 Nordeste 41 Nordeste 0 -- -- 75
2018-01-14 09:00:00 13.1 19 Nordeste 33 Nordeste 0 -- -- 89
2018-01-14 08:00:00 12.6 13 Nordeste 35 Nordeste 0 -- -- 94
2018-01-14 07:00:00 12.8 23 Nordeste 37 Nordeste 0 -- -- 96
2018-01-14 06:00:00 13 21 Nordeste 40 Nordeste 0 -- -- 99
2018-01-14 05:00:00 13.4 27 Nordeste 41 Nordeste 0 -- -- 99
2018-01-14 04:00:00 13.5 16 Nordeste 28 Nordeste 0 -- -- 98
2018-01-14 03:00:00 14 15 Nordeste 27 Nordeste 0 -- -- 95
2018-01-14 02:00:00 13.9 8 Nordeste 21 Nordeste 0 -- -- 93
2018-01-14 01:00:00 13.3 3 Norte 21 Nordeste 0 -- -- 92
2018-01-14 00:00:00 13.5 10 Nordeste 22 Nordeste 0 -- -- 91
2018-01-13 23:00:00 13.5 12 Nordeste 32 Nordeste 0 -- -- 88
2018-01-13 22:00:00 13.6 22 Nordeste 37 Nordeste 0 -- -- 95
2018-01-13 21:00:00 14.3 19 Nordeste 39 Nordeste 0 -- -- 80
2018-01-13 20:00:00 14.1 19 Nordeste 36 Nordeste 0 -- -- 84
2018-01-13 19:00:00 14.4 24 Nordeste 40 Nordeste 0 -- -- 84
2018-01-13 18:00:00 15 21 Nordeste 40 Nordeste 0 -- -- 79
2018-01-13 17:00:00 15.4 25 Nordeste 41 Nordeste 0 -- -- 74
2018-01-13 16:00:00 16.4 23 Nordeste 39 Este 0 -- -- 69
2018-01-13 15:00:00 16.1 23 Nordeste 46 Este 0 -- -- 74
2018-01-13 14:00:00 16.5 23 Nordeste 44 Nordeste 0 -- -- 70
2018-01-13 13:00:00 17.4 29 Nordeste 46 Este 0 -- -- 68
2018-01-13 12:00:00 17.1 33 Nordeste 45 Nordeste 0 -- -- 62
2018-01-13 11:00:00 16.4 25 Nordeste 38 Nordeste 0 -- -- 61
2018-01-13 10:00:00 15.3 19 Nordeste 28 Nordeste 0 -- -- 67
2018-01-13 09:00:00 13 12 Norte 20 Nordeste 0 -- -- 74
2018-01-13 08:00:00 12.8 6 Norte 18 Oeste 0 -- -- 76
2018-01-13 07:00:00 12.6 9 Noroeste 17 Noroeste 0 -- -- 75
2018-01-13 06:00:00 12.6 12 Noroeste 17 Noroeste 0 -- -- 75
2018-01-13 05:00:00 13 9 Oeste 13 Oeste 0 -- -- 76
2018-01-13 04:00:00 13.3 3 Este 13 Nordeste 0 -- -- 77
2018-01-13 03:00:00 13.4 5 Nordeste 13 Noroeste 0 -- -- 76
2018-01-13 02:00:00 13.3 6 Noroeste 12 Norte 0 -- -- 73
2018-01-13 01:00:00 13.4 6 Noroeste 14 Norte 0 -- -- 76
2018-01-13 00:00:00 13.5 8 Norte 15 Norte 0 -- -- 76
2018-01-12 23:00:00 13.9 12 Nordeste 18 Nordeste 0 -- -- 75
2018-01-12 22:00:00 14.3 14 Nordeste 24 Nordeste 0 -- -- 78
2018-01-12 21:00:00 14.3 11 Nordeste 18 Nordeste 0 -- -- 79
2018-01-12 20:00:00 14.4 11 Nordeste 19 Nordeste 0 -- -- 81
2018-01-12 19:00:00 14.5 12 Nordeste 21 Nordeste 0 -- -- 82
2018-01-12 18:00:00 14.9 14 Nordeste 24 Nordeste 0 -- -- 79
2018-01-12 17:00:00 15.7 14 Nordeste 24 Nordeste 0 -- -- 77
2018-01-12 16:00:00 16.7 16 Este 28 Este 0 -- -- 72
2018-01-12 15:00:00 17.9 18 Nordeste 31 Nordeste 0 -- -- 68
2018-01-12 14:00:00 18.3 15 Este 26 Este 0 -- -- 67
2018-01-12 13:00:00 18.2 14 Nordeste 26 Este 0 -- -- 66
2018-01-12 12:00:00 18 14 Nordeste 27 Este 0 -- -- 67
2018-01-12 11:00:00 16.8 17 Nordeste 31 Nordeste 0 -- -- 68
2018-01-12 10:00:00 15.5 16 Nordeste 28 Nordeste 0 -- -- 72
2018-01-12 09:00:00 12.8 12 Norte 21 Norte 0 -- -- 80
2018-01-12 08:00:00 11.5 11 Norte 21 Noroeste 0 -- -- 82
2018-01-12 07:00:00 11.5 11 Norte 20 Norte 0 -- -- 82
2018-01-12 06:00:00 11.8 11 Norte 21 Norte 0 -- -- 82
2018-01-12 05:00:00 11.9 13 Norte 23 Norte 0 -- -- 81
2018-01-12 04:00:00 12.2 14 Norte 24 Norte 0 -- -- 80
2018-01-12 03:00:00 11.9 11 Norte 20 Norte 0 -- -- 83
2018-01-12 02:00:00 12 10 Norte 20 Norte 0 -- -- 82
2018-01-12 01:00:00 12.3 12 Norte 24 Nordeste 0 -- -- 83
2018-01-12 00:00:00 12.5 13 Norte 29 Nordeste 0 -- -- 82
2018-01-11 23:00:00 13 18 Nordeste 35 Nordeste 0 -- -- 81
2018-01-11 22:00:00 12.8 15 Nordeste 32 Nordeste 0 -- -- 82
2018-01-11 21:00:00 12.9 18 Nordeste 30 Nordeste 0 -- -- 82
2018-01-11 20:00:00 12.9 13 Nordeste 29 Nordeste 0 -- -- 84
2018-01-11 19:00:00 13.6 18 Nordeste 33 Nordeste 0 -- -- 82
2018-01-11 18:00:00 14.5 18 Nordeste 31 Nordeste 0 -- -- 79
2018-01-11 17:00:00 15.4 21 Nordeste 36 Nordeste 0 -- -- 76
2018-01-11 16:00:00 15.9 23 Nordeste 37 Nordeste 0 -- -- 77
2018-01-11 15:00:00 16.1 21 Nordeste 41 Nordeste 0 -- -- 77
2018-01-11 14:00:00 16.6 20 Nordeste 32 Este 0 -- -- 77
2018-01-11 13:00:00 16.5 21 Nordeste 34 Este 0 -- -- 79
2018-01-11 12:00:00 15.4 18 Nordeste 36 Nordeste 0 -- -- 86
2018-01-11 11:00:00 14.8 19 Nordeste 35 Nordeste 0 -- -- 91
2018-01-11 10:00:00 14.2 15 Nordeste 30 Nordeste 0 -- -- 96
2018-01-11 09:00:00 13.9 19 Nordeste 30 Nordeste 0 -- -- 98
2018-01-11 08:00:00 14 17 Nordeste 32 Nordeste 0 -- -- 99
2018-01-11 07:00:00 14.3 19 Nordeste 36 Nordeste 0 -- -- 99
2018-01-11 06:00:00 14.9 19 Nordeste 34 Nordeste 0 -- -- 99
2018-01-11 05:00:00 14.9 21 Nordeste 40 Nordeste 0 -- -- 97
2018-01-11 04:00:00 15 22 Nordeste 37 Nordeste 0 -- -- 96
2018-01-11 03:00:00 14.9 18 Nordeste 34 Nordeste 0 -- -- 97
2018-01-11 02:00:00 14.9 12 Nordeste 30 Nordeste 0 -- -- 91
2018-01-11 01:00:00 15 18 Nordeste 29 Nordeste 0 -- -- 90
2018-01-11 00:00:00 14.7 12 Nordeste 26 Nordeste 0 -- -- 92
2018-01-10 23:00:00 14.4 12 Nordeste 23 Nordeste 0 -- -- 93
2018-01-10 22:00:00 14.1 4 Noroeste 13 Nordeste 0 -- -- 89
2018-01-10 21:00:00 14.3 6 Norte 22 Nordeste 0 -- -- 85
2018-01-10 20:00:00 15.3 12 Nordeste 22 Nordeste 0 -- -- 92
2018-01-10 19:00:00 15.9 12 Nordeste 27 Nordeste 0 -- -- 91
2018-01-10 18:00:00 16.4 16 Nordeste 33 Nordeste 0 -- -- 91
2018-01-10 17:00:00 17.2 19 Nordeste 33 Nordeste 0 -- -- 85
2018-01-10 16:00:00 18 23 Nordeste 34 Nordeste 0 -- -- 77
2018-01-10 15:00:00 19.1 18 Nordeste 29 Nordeste 0 -- -- 72
2018-01-10 14:00:00 19.1 14 Nordeste 24 Este 0 -- -- 68
2018-01-10 13:00:00 19.3 14 Este 25 Este 0 -- -- 67
2018-01-10 12:00:00 19.1 8 Nordeste 17 Este 0 -- -- 68
2018-01-10 11:00:00 18.5 5 Nordeste 13 Sudoeste 0 -- -- 67
2018-01-10 10:00:00 17 8 Noroeste 18 Oeste 0 -- -- 71
2018-01-10 09:00:00 15.9 12 Oeste 19 Oeste 0 -- -- 74
2018-01-10 08:00:00 15.5 11 Oeste 20 Oeste 0 -- -- 76
2018-01-10 07:00:00 15.4 9 Noroeste 13 Oeste 0 -- -- 77
2018-01-10 06:00:00 15.3 8 Noroeste 14 Noroeste 0 -- -- 79
2018-01-10 05:00:00 15.2 9 Noroeste 15 Oeste 0 -- -- 81
2018-01-10 04:00:00 15.3 5 Noroeste 8 Oeste 0 -- -- 83
2018-01-10 03:00:00 15.4 0 Calma 4 Oeste 0 -- -- 86
2018-01-10 02:00:00 15.5 2 Nordeste 5 Norte 0 -- -- 88
2018-01-10 01:00:00 15.6 3 Nordeste 9 Oeste 0 -- -- 87
2018-01-10 00:00:00 15.6 5 Noroeste 7 Noroeste 0 -- -- 82
2018-01-09 23:00:00 15.6 2 Norte 4 Noroeste 0 -- -- 89
2018-01-09 22:00:00 15.7 3 Norte 5 Norte 0 -- -- 91
2018-01-09 21:00:00 15.7 2 Norte 4 Norte 0 -- -- 91
2018-01-09 20:00:00 15.8 0 Calma 5 Sudeste 0 -- -- 90
2018-01-09 19:00:00 16 2 Este 12 Sur 0 -- -- 89
2018-01-09 18:00:00 16.1 8 Sur 15 Sur 0 -- -- 89
2018-01-09 17:00:00 16.2 10 Sur 17 Sur 0 -- -- 90
2018-01-09 16:00:00 16.3 12 Sur 18 Sur 0 -- -- 89
2018-01-09 15:00:00 16.5 13 Sur 19 Sudeste 0 -- -- 88
2018-01-09 14:00:00 16.5 11 Sur 21 Sur 0 -- -- 86
2018-01-09 13:00:00 18.3 10 Sur 18 Sur 0 -- -- 79
2018-01-09 12:00:00 19.2 10 Sur 19 Sur 0 -- -- 74
2018-01-09 11:00:00 18.3 8 Sur 12 Sur 0 -- -- 76
2018-01-09 10:00:00 16.4 7 Sur 15 Oeste 0 -- -- 83
2018-01-09 09:00:00 13.4 9 Oeste 13 Oeste 0 -- -- 92
2018-01-09 08:00:00 12.3 4 Oeste 9 Noroeste 0 -- -- 89
2018-01-09 07:00:00 12.4 6 Oeste 11 Oeste 0 -- -- 88
2018-01-09 06:00:00 13 9 Oeste 16 Oeste 0 -- -- 91
2018-01-09 05:00:00 13.2 10 Oeste 15 Oeste 0 -- -- 90
2018-01-09 04:00:00 13.7 11 Oeste 17 Oeste 0 -- -- 88
2018-01-09 03:00:00 13.8 9 Oeste 14 Oeste 0 -- -- 89
2018-01-09 02:00:00 13.5 11 Oeste 15 Oeste 0 -- -- 90
2018-01-09 01:00:00 13.5 10 Oeste 15 Oeste 0 -- -- 88
2018-01-09 00:00:00 13.8 9 Sudoeste 12 Sudoeste 0 -- -- 88
2018-01-08 23:00:00 14.8 2 Sudeste 9 Oeste 0 -- -- 85
2018-01-08 22:00:00 15 7 Oeste 9 Oeste 0 -- -- 90
2018-01-08 21:00:00 15.1 0 Calma 4 Norte 0 -- -- 90
2018-01-08 20:00:00 15.1 0 Calma 7 Este 0 -- -- 90
2018-01-08 19:00:00 15.1 5 Este 10 Sudeste 0 -- -- 90
2018-01-08 18:00:00 15.6 6 Sudeste 13 Sudeste 0 -- -- 88
2018-01-08 17:00:00 16 8 Sur 17 Sudeste 0 -- -- 84
2018-01-08 16:00:00 16.6 9 Sudeste 18 Sudeste 0 -- -- 79
2018-01-08 15:00:00 16.6 9 Sur 19 Sur 0 -- -- 77
2018-01-08 14:00:00 16.3 9 Sur 27 Sur 0 -- -- 81
2018-01-08 13:00:00 16.7 17 Sur 28 Sur 0 -- -- 77
2018-01-08 12:00:00 18 13 Sudoeste 27 Sur 0 -- -- 71
2018-01-08 11:00:00 17.9 13 Sudoeste 27 Sudoeste 0 -- -- 68
2018-01-08 10:00:00 16.8 18 Sudoeste 27 Sudoeste 0 -- -- 68
2018-01-08 09:00:00 15.2 15 Sudoeste 26 Sudoeste 0 -- -- 68
2018-01-08 08:00:00 13.6 11 Oeste 22 Sudoeste 0 -- -- 72
2018-01-08 07:00:00 13.4 14 Sudoeste 26 Sudoeste 0 -- -- 77
2018-01-08 06:00:00 13.4 9 Oeste 22 Oeste 0 -- -- 80
2018-01-08 05:00:00 13 15 Oeste 24 Oeste 0 -- -- 79
2018-01-08 04:00:00 12.7 13 Oeste 17 Oeste 0 -- -- 75
2018-01-08 03:00:00 12.9 12 Oeste 21 Oeste 0 -- -- 77
2018-01-08 02:00:00 13.2 13 Oeste 23 Oeste 0 -- -- 75
2018-01-08 01:00:00 12.9 14 Oeste 20 Oeste 0 -- -- 72
2018-01-08 00:00:00 13 12 Oeste 19 Noroeste 0 -- -- 74
2018-01-07 23:00:00 12.8 6 Noroeste 9 Noroeste 0 -- -- 73
2018-01-07 22:00:00 12.7 5 Noroeste 14 Noroeste 0 -- -- 71
2018-01-07 21:00:00 13 8 Oeste 16 Oeste 0 -- -- 75
2018-01-07 20:00:00 13.6 11 Oeste 21 Sudoeste 0 -- -- 74
2018-01-07 19:00:00 14.5 13 Sudoeste 23 Sudoeste 0 -- -- 70
2018-01-07 18:00:00 15.6 13 Sudoeste 26 Sur 0 -- -- 65
2018-01-07 17:00:00 16.5 15 Sur 25 Sudoeste 0 -- -- 63
2018-01-07 16:00:00 16.2 13 Sur 28 Sudoeste 0 -- -- 64
2018-01-07 15:00:00 17 12 Sudoeste 21 Sudoeste 0 -- -- 61
2018-01-07 14:00:00 17.4 15 Sur 24 Sur 0 -- -- 57
2018-01-07 13:00:00 18 10 Sudeste 24 Este 0 -- -- 56
2018-01-07 12:00:00 17.9 14 Este 26 Este 0 -- -- 53
2018-01-07 11:00:00 17.9 6 Sudeste 15 Este 0 -- -- 58
2018-01-07 10:00:00 14.4 12 Este 17 Este 0 -- -- 69
2018-01-07 09:00:00 12.9 4 Noroeste 7 Oeste 0 -- -- 71
2018-01-07 08:00:00 11.6 8 Oeste 10 Oeste 0 -- -- 74
2018-01-07 07:00:00 11.9 5 Nordeste 12 Noroeste 0 -- -- 79
2018-01-07 06:00:00 12.1 4 Noroeste 12 Noroeste 0 -- -- 78
2018-01-07 05:00:00 12.5 5 Noroeste 32 Oeste 0 -- -- 75
2018-01-07 04:00:00 13.5 10 Sur 35 Oeste 0 -- -- 81
2018-01-07 03:00:00 13.1 5 Norte 21 Nordeste 0 -- -- 83
2018-01-07 02:00:00 13.1 7 Norte 24 Norte 0 -- -- 83
2018-01-07 01:00:00 14.3 9 Nordeste 41 Sudoeste 0 -- -- 70
2018-01-07 00:00:00 13.5 8 Noroeste 16 Noroeste 0 -- -- 83
2018-01-06 23:00:00 14 5 Sudoeste 18 Sudoeste 0 -- -- 81
2018-01-06 22:00:00 14.8 7 Oeste 36 Oeste 0 -- -- 75
2018-01-06 21:00:00 14.7 17 Sudoeste 26 Oeste 0 -- -- 77
2018-01-06 20:00:00 14.9 14 Sudoeste 18 Sudoeste 0 -- -- 83
2018-01-06 19:00:00 15.3 7 Sur 17 Sur 0 -- -- 81
2018-01-06 18:00:00 15.7 13 Sur 22 Sudoeste 0 -- -- 76
2018-01-06 17:00:00 16.5 10 Sudoeste 23 Sudoeste 0 -- -- 72
2018-01-06 16:00:00 16.8 18 Sudoeste 24 Sudoeste 0 -- -- 72
2018-01-06 15:00:00 17.8 6 Sudeste 24 Sudeste 0 -- -- 68
2018-01-06 14:00:00 18.1 9 Sur 19 Sur 0 -- -- 68
2018-01-06 13:00:00 16.9 10 Sudeste 19 Sudeste 0 -- -- 75
2018-01-06 12:00:00 17.8 5 Sudeste 19 Sur 0 -- -- 69
2018-01-06 11:00:00 17.6 11 Sur 21 Sur 0 -- -- 68
2018-01-06 10:00:00 16.8 5 Oeste 14 Oeste 0 -- -- 72
2018-01-06 09:00:00 13.9 8 Oeste 12 Noroeste 0 -- -- 80
2018-01-06 08:00:00 13 9 Noroeste 15 Noroeste 0 -- -- 74
2018-01-06 07:00:00 13.5 11 Oeste 19 Oeste 0 -- -- 81
2018-01-06 06:00:00 13.5 13 Oeste 23 Sudoeste 0 -- -- 77
2018-01-06 05:00:00 13.6 16 Sudoeste 24 Oeste 0 -- -- 74
2018-01-06 04:00:00 13.6 16 Oeste 22 Oeste 0 -- -- 86
2018-01-06 03:00:00 13.5 11 Oeste 20 Oeste 0 -- -- 86
2018-01-06 02:00:00 14.5 5 Sudoeste 10 Sudoeste 0 -- -- 84
2018-01-06 01:00:00 14.9 5 Sudoeste 12 Sudoeste 0 -- -- 82
2018-01-06 00:00:00 14.8 8 Oeste 25 Sudoeste 0 -- -- 82
2018-01-05 23:00:00 14.5 20 Sudoeste 30 Sudoeste 0 -- -- 86
2018-01-05 22:00:00 13.9 14 Sudoeste 28 Sudoeste 0 -- -- 92
2018-01-05 21:00:00 14 12 Oeste 17 Oeste 0 -- -- 79
2018-01-05 20:00:00 14.2 3 Este 13 Noroeste 0 -- -- 88
2018-01-05 19:00:00 15 6 Nordeste 13 Este 0 -- -- 89
2018-01-05 18:00:00 16 6 Nordeste 15 Este 0 -- -- 85
2018-01-05 17:00:00 17.3 8 Este 17 Sudeste 0 -- -- 79
2018-01-05 16:00:00 20 8 Sudeste 15 Sudeste 0 -- -- 69
2018-01-05 15:00:00 20.8 9 Sudeste 16 Sudeste 0 -- -- 66
2018-01-05 14:00:00 20.9 9 Sudeste 18 Sudeste 0 -- -- 66
2018-01-05 13:00:00 20.3 8 Sudeste 17 Sudeste 0 -- -- 67
2018-01-05 12:00:00 20 9 Este 17 Sudeste 0 -- -- 68
2018-01-05 11:00:00 19.3 6 Sudeste 15 Sur 0 -- -- 69
2018-01-05 10:00:00 17.1 5 Sudeste 10 Sudeste 0 -- -- 74
2018-01-05 09:00:00 14.3 2 Sur 14 Noroeste 0 -- -- 61
2018-01-05 08:00:00 11.4 3 Oeste 5 Este 0 -- -- 79
2018-01-05 07:00:00 11.6 2 Nordeste 9 Nordeste 0 -- -- 77
2018-01-05 06:00:00 12.4 8 Norte 13 Noroeste 0 -- -- 74
2018-01-05 05:00:00 12.4 5 Nordeste 11 Noroeste 0 -- -- 78
2018-01-05 04:00:00 12.7 3 Noroeste 11 Norte 0 -- -- 73
2018-01-05 03:00:00 12 6 Noroeste 13 Norte 0 -- -- 79
2018-01-05 02:00:00 12.2 7 Norte 17 Norte 0 -- -- 82
2018-01-05 01:00:00 12 8 Noroeste 17 Norte 0 -- -- 75
2018-01-05 00:00:00 12.8 9 Norte 15 Norte 0 -- -- 89
2018-01-04 23:00:00 12.7 8 Norte 19 Nordeste 0 -- -- 85
2018-01-04 22:00:00 13.1 10 Nordeste 18 Nordeste 0 -- -- 94
2018-01-04 21:00:00 12.9 11 Nordeste 17 Nordeste 0 -- -- 92
2018-01-04 20:00:00 13.7 3 Norte 6 Nordeste 0 -- -- 93
2018-01-04 19:00:00 14.7 5 Nordeste 15 Nordeste 0 -- -- 90
2018-01-04 18:00:00 15.5 12 Nordeste 22 Nordeste 0 -- -- 89
2018-01-04 17:00:00 16.3 14 Nordeste 30 Este 0 -- -- 85
2018-01-04 16:00:00 17.5 20 Nordeste 29 Nordeste 0 -- -- 81
2018-01-04 15:00:00 17.6 17 Nordeste 37 Nordeste 0 -- -- 79
2018-01-04 14:00:00 18.8 22 Nordeste 37 Este 0 -- -- 73
2018-01-04 13:00:00 19.2 25 Nordeste 35 Este 0 -- -- 73
2018-01-04 12:00:00 20.2 14 Este 23 Este 0 -- -- 70
2018-01-04 11:00:00 19.1 16 Este 24 Nordeste 0 -- -- 73
2018-01-04 10:00:00 18.3 9 Este 15 Este 0 -- -- 75
2018-01-04 09:00:00 14.8 2 Sur 9 Este 0 -- -- 84
2018-01-04 08:00:00 13.6 2 Sudoeste 6 Sudoeste 0 -- -- 81
2018-01-04 07:00:00 13.5 3 Sudoeste 10 Este 0 -- -- 73
2018-01-04 06:00:00 14.8 6 Este 14 Nordeste 0 -- -- 61
2018-01-04 05:00:00 16.3 6 Norte 15 Norte 0 -- -- 22
2018-01-04 04:00:00 17.6 6 Nordeste 14 Nordeste 0 -- -- 19
2018-01-04 03:00:00 16.9 8 Nordeste 16 Nordeste 0 -- -- 17
2018-01-04 02:00:00 18 8 Nordeste 18 Norte 0 -- -- 14
2018-01-04 01:00:00 16.9 5 Nordeste 13 Nordeste 0 -- -- 16
2018-01-04 00:00:00 14.9 4 Nordeste 11 Nordeste 0 -- -- 40
2018-01-03 23:00:00 16.6 10 Nordeste 14 Nordeste 0 -- -- 27
2018-01-03 22:00:00 15.2 8 Norte 18 Nordeste 0 -- -- 53
2018-01-03 21:00:00 14.4 0 Calma 8 Norte 0 -- -- 86
2018-01-03 20:00:00 15 6 Norte 15 Oeste 0 -- -- 61
2018-01-03 19:00:00 15 3 Este 15 Nordeste 0 -- -- 88
2018-01-03 18:00:00 16.4 13 Nordeste 22 Este 0 -- -- 86
2018-01-03 17:00:00 18.7 12 Nordeste 21 Este 0 -- -- 77
2018-01-03 16:00:00 20.3 12 Este 28 Nordeste 0 -- -- 71
2018-01-03 15:00:00 20.6 19 Nordeste 28 Nordeste 0 -- -- 70
2018-01-03 14:00:00 22.5 15 Este 23 Este 0 -- -- 60
2018-01-03 13:00:00 22.4 11 Este 18 Este 0 -- -- 64
2018-01-03 12:00:00 20.3 13 Este 22 Nordeste 0 -- -- 72
2018-01-03 11:00:00 20.4 12 Este 19 Nordeste 0 -- -- 71
2018-01-03 10:00:00 18.5 5 Este 10 Nordeste 0 -- -- 70
2018-01-03 09:00:00 14.6 3 Este 11 Nordeste 0 -- -- 75
2018-01-03 08:00:00 14 3 Sudoeste 16 Nordeste 0 -- -- 57
2018-01-03 07:00:00 13.4 5 Nordeste 14 Norte 0 -- -- 75
2018-01-03 06:00:00 13.4 0 Calma 9 Sudeste 0 -- -- 84
2018-01-03 05:00:00 14.4 4 Sudoeste 9 Oeste 0 -- -- 63
2018-01-03 04:00:00 16.9 3 Sur 17 Nordeste 0 -- -- 46
2018-01-03 03:00:00 19.7 12 Norte 22 Norte 0 -- -- 17
2018-01-03 02:00:00 19.5 10 Nordeste 23 Norte 0 -- -- 19
2018-01-03 01:00:00 20.1 16 Nordeste 32 Nordeste 0 -- -- 19
2018-01-03 00:00:00 20.5 18 Nordeste 31 Nordeste 0 -- -- 18
2018-01-02 23:00:00 21.8 17 Nordeste 43 Norte 0 -- -- 16
2018-01-02 22:00:00 19.4 17 Nordeste 37 Norte 0 -- -- 18
2018-01-02 21:00:00 18.5 13 Nordeste 24 Norte 0 -- -- 31
2018-01-02 20:00:00 19.2 12 Nordeste 32 Norte 0 -- -- 32
2018-01-02 19:00:00 20.6 13 Nordeste 35 Norte 0 -- -- 33
2018-01-02 18:00:00 20.3 17 Nordeste 40 Nordeste 0 -- -- 31
2018-01-02 17:00:00 21.9 24 Nordeste 39 Nordeste 0 -- -- 30
2018-01-02 16:00:00 22.8 26 Nordeste 41 Nordeste 0 -- -- 32
2018-01-02 15:00:00 23.6 26 Nordeste 45 Nordeste 0 -- -- 29
2018-01-02 14:00:00 24.5 26 Nordeste 41 Nordeste 0 -- -- 27
2018-01-02 13:00:00 24.6 24 Nordeste 44 Nordeste 0 -- -- 29
2018-01-02 12:00:00 24.4 24 Nordeste 40 Nordeste 0 -- -- 30
2018-01-02 11:00:00 23.2 19 Nordeste 44 Nordeste 0 -- -- 39
2018-01-02 10:00:00 18.8 6 Este 13 Nordeste 0 -- -- 68
2018-01-02 09:00:00 14.5 4 Nordeste 7 Este 0 -- -- 79
2018-01-02 08:00:00 13 3 Nordeste 9 Norte 0 -- -- 82
2018-01-02 07:00:00 12.8 4 Sudoeste 8 Sudoeste 0 -- -- 89
2018-01-02 06:00:00 13.1 4 Sudoeste 10 Sur 0 -- -- 88
2018-01-02 05:00:00 13.3 3 Sur 21 Nordeste 0 -- -- 89
2018-01-02 04:00:00 13.8 10 Nordeste 19 Nordeste 0 -- -- 88
2018-01-02 03:00:00 13.5 6 Nordeste 18 Norte 0 -- -- 86
2018-01-02 02:00:00 13.9 8 Nordeste 19 Norte 0 -- -- 84
2018-01-02 01:00:00 14.3 7 Nordeste 40 Nordeste 0 -- -- 87
2018-01-02 00:00:00 14.6 17 Nordeste 32 Nordeste 0 -- -- 87
2018-01-01 23:00:00 15.1 16 Nordeste 29 Nordeste 0 -- -- 80
2018-01-01 22:00:00 14.9 13 Nordeste 41 Nordeste 0 -- -- 83
2018-01-01 21:00:00 15.3 27 Nordeste 45 Nordeste 0 -- -- 84
2018-01-01 20:00:00 15.9 25 Nordeste 36 Nordeste 0 -- -- 75
2018-01-01 19:00:00 16.3 24 Nordeste 40 Nordeste 0 -- -- 82
2018-01-01 18:00:00 18.7 20 Nordeste 37 Nordeste 0 -- -- 44
2018-01-01 17:00:00 19.8 23 Nordeste 47 Nordeste 0 -- -- 44
2018-01-01 16:00:00 18.4 27 Nordeste 42 Este 0 -- -- 70
2018-01-01 15:00:00 19.3 22 Nordeste 40 Nordeste 0 -- -- 73
2018-01-01 14:00:00 19.1 24 Nordeste 39 Este 0 -- -- 70
2018-01-01 13:00:00 19.9 22 Nordeste 33 Este 0 -- -- 68
2018-01-01 12:00:00 18.8 21 Nordeste 40 Este 0 -- -- 70
2018-01-01 11:00:00 17.8 23 Nordeste 40 Este 0 -- -- 74
2018-01-01 10:00:00 16.7 27 Nordeste 41 Nordeste 0 -- -- 78
2018-01-01 09:00:00 15.3 27 Nordeste 40 Nordeste 0 -- -- 86
2018-01-01 08:00:00 14.4 25 Nordeste 36 Nordeste 0 -- -- 86
2018-01-01 07:00:00 14.1 4 Norte 28 Norte 0 -- -- 74
2018-01-01 06:00:00 14.6 18 Nordeste 33 Nordeste 0 -- -- 72
2018-01-01 05:00:00 15.2 22 Nordeste 41 Nordeste 0 -- -- 70
2018-01-01 04:00:00 15.9 15 Nordeste 37 Nordeste 0 -- -- 46
2018-01-01 03:00:00 16.6 21 Nordeste 33 Nordeste 0 -- -- 42
2018-01-01 02:00:00 15.5 14 Nordeste 24 Nordeste 0 -- -- 43
2018-01-01 01:00:00 16.2 17 Nordeste 29 Norte 0 -- -- 46
2018-01-01 00:00:00 15.4 16 Nordeste 26 Nordeste 0 -- -- 62
2017-12-31 23:00:00 16.4 20 Nordeste 37 Nordeste 0 -- -- 52
2017-12-31 22:00:00 15.3 15 Nordeste 30 Nordeste 0 -- -- 76
2017-12-31 21:00:00 14.9 10 Nordeste 20 Este 0 -- -- 81
2017-12-31 20:00:00 14.8 3 Nordeste 12 Nordeste 0 -- -- 78
2017-12-31 19:00:00 15.3 0 Calma 16 Nordeste 0 -- -- 76
2017-12-31 18:00:00 16.8 10 Nordeste 22 Nordeste 0 -- -- 77
2017-12-31 17:00:00 18.7 13 Nordeste 26 Nordeste 0 -- -- 69
2017-12-31 16:00:00 19.9 14 Nordeste 26 Este 0 -- -- 72
2017-12-31 15:00:00 20.1 17 Nordeste 30 Este 0 -- -- 73
2017-12-31 14:00:00 20.1 19 Este 35 Este 0 -- -- 73
2017-12-31 13:00:00 21.3 16 Este 27 Este 0 -- -- 68
2017-12-31 12:00:00 21 16 Este 24 Nordeste 0 -- -- 69
2017-12-31 11:00:00 19.8 14 Nordeste 26 Este 0 -- -- 72
2017-12-31 10:00:00 18.9 9 Este 18 Este 0 -- -- 47
2017-12-31 09:00:00 17.6 4 Norte 14 Noroeste 0 -- -- 37
2017-12-31 08:00:00 15.9 11 Norte 19 Norte 0 -- -- 43
2017-12-31 07:00:00 14.3 6 Norte 13 Nordeste 0 -- -- 64
2017-12-31 06:00:00 14.6 4 Norte 10 Noroeste 0 -- -- 70
2017-12-31 05:00:00 15.2 6 Noroeste 13 Nordeste 0 -- -- 53
2017-12-31 04:00:00 14.4 2 Norte 12 Noroeste 0 -- -- 72
2017-12-31 03:00:00 14.4 6 Norte 12 Nordeste 0 -- -- 84
2017-12-31 02:00:00 14.6 5 Norte 9 Norte 0 -- -- 73
2017-12-31 01:00:00 14.8 3 Norte 14 Norte 0 -- -- 77
2017-12-31 00:00:00 15.1 8 Nordeste 14 Nordeste 0 -- -- 84